Theta_e
313 313 315 318 322 328 333 335 335 337 337 336 336 337 338 337 339 338 337 337 335 335 334 333 331 332 333 333 333 332 332 332 331 329 329 329 329 328 328 328 326 326 328
310 311 313 316 317 319 321 330 331 331 330 331 331 331 336 336 337 336 336 336 332 330 334 334 332 331 334 333 333 333 332 331 331 328 328 328 328 328 327 327 326 325 325
308 308 309 310 311 312 315 320 323 330 333 330 331 334 332 331 330 334 335 335 334 333 334 334 332 331 335 334 332 333 332 331 331 329 327 328 327 327 327 327 326 325 324
306 306 306 307 308 309 312 314 316 318 327 329 327 327 329 330 332 333 332 330 330 325 327 334 334 332 332 334 334 332 332 332 331 330 327 327 327 326 327 327 326 325 325
305 304 305 305 306 307 308 310 312 314 316 323 329 326 323 321 321 327 329 327 325 324 332 335 335 333 333 332 333 333 332 332 332 331 329 327 326 326 326 326 326 325 324
303 303 303 303 303 305 306 308 310 312 314 316 319 324 324 322 324 323 323 325 325 326 326 335 336 335 333 333 332 332 333 332 332 331 330 328 327 326 326 325 325 324 323
300 299 300 300 300 302 303 306 307 309 311 313 316 321 323 326 325 326 326 325 326 329 331 331 333 335 334 333 333 332 332 333 333 332 331 331 329 327 326 325 325 324 322
295 295 295 296 297 297 298 299 303 307 309 311 315 317 321 324 325 325 326 327 330 332 331 332 332 333 334 333 333 333 332 332 332 333 331 331 331 329 327 326 325 324 323
292 292 292 293 294 295 296 297 298 301 304 308 312 316 320 322 321 323 326 327 328 330 331 332 333 333 333 334 333 333 332 333 332 333 332 331 331 330 329 328 327 326 325
290 290 291 292 292 292 293 295 297 299 300 304 306 311 314 317 320 324 325 329 329 328 330 332 332 333 334 334 334 333 333 332 333 332 331 331 332 331 330 330 328 328 326
289 289 290 290 290 290 291 293 294 297 298 299 303 306 308 313 315 321 323 323 324 328 331 332 333 333 335 336 334 334 334 334 333 333 333 332 332 331 331 331 331 330 328
288 288 288 289 289 289 291 292 293 296 297 298 300 302 305 309 311 315 319 321 323 326 328 329 331 332 332 334 335 335 334 334 333 333 332 333 332 331 331 331 331 331 331
287 287 287 288 288 288 289 291 292 294 295 296 299 301 302 304 306 308 310 314 318 319 324 328 329 330 331 331 332 334 334 335 334 333 333 333 333 332 331 330 330 331 331
286 286 286 286 286 287 288 289 291 293 295 296 297 299 302 301 302 303 306 310 312 315 318 323 325 329 329 330 330 331 333 333 334 334 333 333 333 333 332 331 331 330 330
285 286 284 285 285 286 287 289 290 291 295 295 297 300 301 302 302 302 303 307 309 313 315 318 322 324 325 327 329 330 329 330 331 332 333 333 334 334 333 332 332 331 331
284 284 284 284 284 285 285 286 287 288 290 291 293 295 296 299 301 303 305 307 310 311 313 315 320 320 323 325 326 326 327 328 329 330 331 333 333 333 332 331 332 332 332
284 284 283 283 283 284 284 285 285 285 286 287 287 288 289 292 294 297 301 305 308 312 314 316 319 319 319 318 319 326 326 326 327 329 328 326 323 324 326 326 327 327 330
284 283 283 282 282 283 284 284 285 284 284 285 285 285 286 287 288 291 293 297 301 307 310 315 316 316 315 313 317 318 317 319 321 320 322 322 322 321 321 321 322 323 324
283 282 282 282 281 281 282 282 282 283 282 282 282 285 285 285 285 286 287 290 295 300 301 306 302 298 300 297 301 306 308 306 310 308 309 314 319 321 322 324 324 316 319
281 281 280 281 281 281 281 280 280 280 281 281 281 282 284 285 284 284 284 286 288 290 292 293 290 289 289 290 293 292 298 300 301 301 301 300 300 301 302 310 318 311 312
279 280 278 279 280 281 281 279 278 278 278 278 279 279 281 284 283 283 284 283 285 285 286 286 286 285 285 285 287 289 293 297 297 293 297 296 294 295 294 296 298 304 305
278 278 278 277 278 281 281 280 278 277 276 276 277 277 278 280 282 283 282 282 282 283 283 283 283 283 283 284 286 289 290 293 295 291 291 292 292 292 292 291 292 293 297
278 277 277 277 277 279 281 281 279 277 276 276 275 276 276 277 279 281 281 282 282 282 281 281 281 281 281 281 284 286 290 288 285 283 287 290 288 289 289 289 289 290 292
279 277 277 276 276 277 279 280 279 278 276 275 276 275 275 276 278 278 279 280 280 281 281 281 281 281 280 280 282 283 285 288 286 282 282 286 286 286 288 287 287 288 288
281 280 278 277 276 276 277 278 279 278 277 276 275 276 275 276 277 277 277 278 279 279 279 280 279 280 279 280 280 281 281 282 287 282 279 283 284 284 287 288 288 287 286
281 281 280 278 277 276 277 277 276 276 276 276 275 275 276 276 276 276 276 276 277 277 277 277 277 277 278 278 279 278 280 280 280 281 279 280 282 282 284 287 287 285 285
Wind_Speed
19 19 19 19 20 19 18 18 17 19 22 26 30 29 23 27 26 23 21 15 13 19 19 22 22 22 24 25 27 27 25 25 24 23 23 22 22 22 21 19 17 16 18
20 21 22 21 18 21 23 17 16 21 22 22 15 25 32 23 26 18 3 5 17 28 28 23 22 23 24 27 29 29 28 27 26 25 25 24 24 24 24 22 21 19 18
19 20 21 22 22 24 24 21 18 17 20 18 17 27 28 21 39 31 16 15 10 24 25 21 21 25 25 27 30 31 31 29 28 27 27 27 26 25 25 24 23 21 20
22 21 22 22 23 25 23 23 23 21 19 19 17 19 23 24 31 35 32 28 26 27 35 31 24 27 28 29 30 32 33 33 31 29 29 29 29 28 27 26 25 23 22
18 19 21 23 25 26 24 23 23 22 22 21 20 17 21 24 24 28 33 38 35 35 36 28 28 25 32 32 31 32 34 35 34 33 31 31 31 31 30 28 27 25 24
20 22 19 21 24 25 24 23 23 23 23 23 22 21 18 19 21 23 31 34 36 36 39 29 26 27 34 38 35 34 33 36 37 36 34 33 33 33 33 31 29 27 26
23 24 23 23 23 24 26 26 26 24 25 23 23 20 23 24 22 25 26 31 36 38 42 35 34 32 32 40 40 39 37 35 37 39 38 37 35 35 35 34 32 30 29
27 26 26 25 22 25 28 28 26 24 22 22 19 18 5 14 24 28 31 30 31 32 35 36 39 37 35 35 42 42 42 41 39 39 40 41 38 37 37 36 35 33 31
29 27 25 25 24 23 24 24 26 26 22 22 22 13 3 5 4 21 30 31 31 32 33 33 34 36 39 36 39 42 44 47 44 42 41 43 42 40 39 39 38 36 35
25 26 24 22 22 24 24 21 22 23 22 20 23 21 24 19 5 5 12 19 25 28 34 34 34 36 39 44 39 40 39 46 49 47 46 44 43 41 41 42 41 39 38
24 24 23 24 24 26 26 26 25 22 24 24 20 19 21 19 21 6 8 11 22 21 30 33 33 35 37 39 40 39 38 37 48 52 50 47 45 43 41 41 43 42 41
24 24 26 26 25 26 25 26 25 23 23 24 24 23 19 9 12 8 3 5 9 17 18 25 32 31 34 36 38 37 42 42 41 50 53 52 49 46 44 41 41 42 42
24 25 28 28 25 25 26 25 26 24 23 24 22 22 23 21 17 16 12 8 6 13 17 21 23 25 32 38 38 40 43 44 44 44 48 54 53 50 47 44 43 44 44
26 28 29 27 25 23 22 21 21 22 23 23 24 22 18 20 23 21 17 11 10 8 20 22 21 21 27 32 33 38 37 43 46 45 44 45 53 52 50 48 46 45 45
27 26 27 25 23 22 21 18 17 19 19 23 19 20 19 19 20 23 22 21 13 10 12 18 19 18 24 27 31 35 37 37 41 42 45 42 46 47 46 49 49 47 47
27 28 26 27 26 25 23 22 23 26 29 24 15 11 8 7 12 22 24 24 23 19 13 21 22 18 20 20 30 33 31 30 36 39 41 36 44 46 39 41 46 47 49
28 28 29 28 30 28 28 29 27 28 29 29 26 24 19 12 10 11 13 9 9 11 13 19 20 23 29 22 27 29 25 26 21 14 17 17 16 16 18 18 25 27 36
24 28 30 32 32 32 30 30 27 30 30 30 29 30 28 20 16 13 12 12 13 12 14 4 9 8 8 14 15 15 12 8 5 5 11 20 29 29 34 22 23 33 44
25 26 26 27 32 34 32 31 31 30 31 31 30 25 31 30 27 25 21 18 15 12 17 11 11 16 7 26 21 14 19 18 21 16 16 9 17 25 26 23 23 37 41
25 25 27 27 27 32 33 31 32 32 30 31 33 33 32 34 35 30 29 26 23 21 21 19 17 15 12 16 14 19 18 18 21 25 22 24 22 16 10 7 24 24 19
25 24 27 28 27 29 31 31 30 31 32 31 33 34 35 30 34 37 36 35 29 26 24 22 21 21 22 16 22 20 11 13 11 32 22 31 26 22 24 21 18 9 10
24 28 28 30 32 27 26 29 29 31 33 34 32 32 33 34 29 32 36 39 41 31 29 24 23 21 24 23 22 18 17 7 3 28 21 23 22 28 27 26 26 22 19
23 25 27 28 31 29 25 24 26 29 31 33 35 33 34 35 32 27 28 30 35 35 36 30 26 28 27 29 24 24 21 16 10 29 15 8 27 20 20 25 27 26 24
20 26 24 26 28 31 25 23 23 26 31 33 34 36 33 35 33 29 26 31 32 34 34 33 31 29 30 32 27 22 21 4 13 27 24 6 24 18 12 22 27 31 28
16 19 24 27 29 32 30 26 22 25 26 30 32 35 37 36 34 30 31 29 29 31 26 26 26 26 28 31 32 27 31 25 7 12 36 12 21 19 11 13 23 27 29
13 15 17 24 26 28 29 29 27 24 25 25 27 30 33 35 34 34 34 29 29 29 29 29 31 33 33 34 34 35 25 22 16 9 27 16 20 19 7 8 19 29 32
Wind_Direction
340 332 332 328 325 320 308 298 306 291 272 269 264 249 249 247 232 223 227 248 224 253 243 239 225 219 219 217 216 212 214 215 215 212 211 205 202 200 200 199 200 201 202
336 334 330 325 316 320 317 320 310 302 301 281 258 265 272 270 270 255 140 203 239 238 243 236 227 218 222 219 218 218 212 216 218 215 214 211 206 205 204 204 205 207 209
327 334 326 324 320 316 309 308 317 298 289 296 265 257 253 242 267 272 245 236 222 242 243 246 234 224 224 225 221 220 219 214 218 219 218 217 212 211 211 210 211 212 214
326 328 329 323 319 316 313 309 310 309 289 274 272 271 267 250 245 248 246 246 247 250 263 259 239 232 225 226 225 224 223 220 215 220 222 220 217 213 213 215 217 219 220
326 324 322 319 318 317 310 305 301 300 299 292 268 252 267 263 259 250 241 249 249 232 231 234 238 237 232 227 226 227 225 225 222 216 222 225 222 220 216 217 220 224 226
332 327 321 317 317 314 309 306 304 303 297 295 293 287 250 251 260 259 250 245 239 230 237 237 237 235 234 228 223 228 228 229 226 224 218 225 226 224 223 219 220 225 229
339 339 331 326 323 316 310 308 304 304 300 295 296 283 270 256 248 256 259 248 244 244 243 249 242 238 230 229 225 224 228 228 230 229 224 221 225 227 226 224 223 224 227
341 339 331 327 318 314 311 310 316 306 291 289 281 293 279 266 246 243 240 240 235 237 237 235 238 236 237 236 230 223 225 226 228 230 230 226 222 226 229 228 228 227 227
332 329 328 322 320 309 300 296 301 302 308 303 279 267 280 231 260 251 232 233 231 232 233 231 231 235 236 237 238 230 225 225 224 226 229 231 226 224 227 230 229 229 229
331 325 324 325 322 317 307 302 287 289 300 298 309 279 272 283 282 302 296 240 241 236 235 232 233 231 232 230 233 236 230 228 225 225 228 229 230 224 225 229 231 230 231
330 329 328 327 320 312 302 294 286 281 277 284 288 295 317 301 277 271 273 281 280 271 241 236 230 227 231 230 228 230 234 233 230 227 226 227 230 229 225 228 232 232 232
332 331 330 325 318 313 306 299 295 282 273 268 274 278 282 286 321 331 301 284 302 293 277 253 248 238 238 240 235 228 234 230 230 229 227 226 227 229 229 228 230 233 233
338 336 333 330 324 319 316 304 294 288 278 270 271 269 269 276 295 305 303 298 287 303 305 281 255 252 248 245 244 238 231 235 234 233 230 228 226 227 229 229 230 233 237
342 342 341 340 336 334 329 319 304 294 282 267 258 265 263 264 273 284 289 303 298 285 290 288 289 271 261 255 253 249 244 237 237 236 232 231 230 229 231 232 233 234 237
350 348 355 353 353 352 353 352 349 339 290 263 264 258 257 256 258 268 269 263 254 271 272 281 276 292 271 265 261 257 252 250 245 241 238 234 236 231 233 237 237 237 239
3 1 2 9 11 11 13 17 19 20 46 49 39 38 17 329 280 263 267 255 251 247 262 261 276 294 315 292 274 260 255 253 250 249 244 239 239 238 240 242 242 243 245
12 12 14 15 16 19 24 29 32 33 38 39 37 33 20 2 334 322 312 332 287 283 256 268 271 278 283 314 331 268 254 253 254 238 227 235 259 266 256 245 258 258 251
14 15 18 21 22 22 26 29 31 35 36 36 35 34 27 22 21 7 357 350 347 325 329 301 308 14 348 349 341 5 36 52 52 318 293 279 275 273 252 264 263 266 270
20 20 19 21 23 24 28 31 34 36 37 34 29 28 35 31 30 25 24 19 11 15 25 37 41 18 10 19 24 13 23 25 33 27 33 343 276 253 263 251 271 267 265
26 25 24 24 27 29 29 30 34 35 35 34 34 30 32 38 35 33 33 31 31 40 40 49 47 32 19 2 28 6 21 26 32 27 41 42 49 60 60 241 243 246 263
34 32 29 28 29 34 33 33 35 35 34 32 31 32 31 38 43 44 43 38 42 48 48 47 41 37 24 11 12 352 341 25 76 16 40 33 25 34 37 40 39 8 351
39 39 34 30 30 30 35 38 40 40 39 36 32 30 30 32 35 43 47 50 49 47 50 49 43 35 20 11 5 2 357 2 11 6 21 26 30 30 36 40 39 34 39
46 44 38 35 33 33 32 38 41 45 43 40 37 34 33 32 34 39 44 49 51 51 53 51 47 37 27 15 8 6 23 57 59 17 15 30 22 33 36 37 35 32 38
49 48 47 40 38 35 35 38 42 42 45 42 39 37 36 35 35 38 41 45 45 45 44 46 47 41 36 28 36 26 21 72 68 31 31 20 8 354 26 35 28 25 30
53 49 43 48 41 38 35 36 41 41 42 40 37 39 38 38 35 37 41 40 42 41 44 45 45 41 37 35 36 36 28 29 11 29 15 5 6 349 8 11 18 17 18
58 58 57 44 46 41 36 37 40 41 40 38 36 35 36 36 36 38 40 37 36 32 35 36 37 34 35 34 34 39 33 33 16 20 5 5 7 9 335 356 1 13 11